Погода в Осинове

Россия / Архангельская область     62°52′01″N   42°47′21″E
темп.,
°C
ветер,
м/с
пор.,
м/с
влажн.,
%
обл.,
%
осадки,
мм/ч
давл.,
гПа
погр.,
м
9 марта, вт
вт900:00−27с369689 0.0 1015168
03:00−30ссз259656 0.0 1017113
06:00−32ссз25960 0.0 101897
09:00−29с249316 0.0 1020230
12:00−23ссз249142 0.0 1022383
15:00−20сз359067 0.0 1022428
18:00−23сз239554 0.0 102323
21:00−25зсз229726 0.0 102420
10 марта, ср
ср1000:00−25з23960 0.0 102339
03:00−26з25930 0.0 1023104
06:00−23з279896 0.1 1022207
09:00−20сз259698 0.1 1023309
12:00−15сз2491100 0.0 1023393
15:00−12зсз258784 0.1 1023391
18:00−12зсз399559 0.0 1022276
21:00−13зсз4119579 0.1 1023348
11 марта, чт
чт1100:00−16зсз31097100 0.0 1023292
03:00−17зсз399598 0.1 1024237
06:00−19зсз389515 0.0 1024167
09:00−15зсз38847 0.0 1024299
12:00−10з49750 0.0 1023536
15:00−8з49750 0.0 1022833
18:00−12зюз310839 0.0 1020270
21:00−12зюз4138255 0.0 1019504
12 марта, пт
пт1200:00−11зюз41382100 0.0 1018637
03:00−13зюз3129097 0.0 1017489
06:00−14юз3109388 0.0 1016319
09:00−11юз498874 0.0 1016397
12:00−6юз410792 0.0 1016589
15:00−4юз410761 0.0 1014702
18:00−7ююз412820 0.0 1014456
21:00−9ююз413860 0.0 1014458
13 марта, сб
сб1300:00−11ююз413840 0.0 1014444
03:00−13ю311900 0.0 1014366
06:00−14ю4129260 0.0 1013469
09:00−11ю5118980 0.1 1012619
12:00−9ю51087100 0.1 1011750
15:00−7ю51187100 0.1 1010815
18:00−7ю51189100 0.1 1010779
21:00−8ю41290100 0.1 1009661